Time,TemperatureF,DewpointF,PressureIn,WindDirection,WindDirectionDegrees,WindSpeedMPH,WindSpeedGustMPH,Humidity,HourlyPrecipIn,Conditions,Clouds,dailyrainin,SolarRadiationWatts/m^2,SoftwareType,DateUTC
2013-04-29 00:02:00,69.6,-99.9,19.98,South,189,6.0,12.0,255,0.00,,,0.00,0,Wunderground v.1.15,2013-04-29 04:02:00,
2013-04-29 00:07:00,69.6,-99.9,19.99,SSW,199,7.0,12.0,255,0.00,,,0.00,0,Wunderground v.1.15,2013-04-29 04:07:00,
2013-04-29 00:12:00,69.7,-99.9,19.98,SSW,200,6.0,12.0,255,0.00,,,0.00,0,Wunderground v.1.15,2013-04-29 04:12:00,
2013-04-29 00:17:00,69.7,-99.9,19.99,SSW,205,7.0,12.0,255,0.00,,,0.00,0,Wunderground v.1.15,2013-04-29 04:17:00,
2013-04-29 00:27:00,69.7,-99.9,19.99,SSW,210,4.0,12.0,255,0.00,,,0.00,0,Wunderground v.1.15,2013-04-29 04:27:00,
2013-04-29 00:37:00,70.0,-99.9,19.98,SSW,209,3.0,12.0,255,0.00,,,0.00,0,Wunderground v.1.15,2013-04-29 04:37:00,
2013-04-29 00:42:00,70.0,-99.9,19.99,SSW,207,8.0,12.0,255,0.00,,,0.00,0,Wunderground v.1.15,2013-04-29 04:42:00,
2013-04-29 00:52:00,70.1,-99.9,19.99,SW,224,5.0,12.0,255,0.00,,,0.00,0,Wunderground v.1.15,2013-04-29 04:52:00,
2013-04-29 01:02:00,70.1,-99.9,19.98,SW,218,5.0,14.0,255,0.00,,,0.00,0,Wunderground v.1.15,2013-04-29 05:02:00,
2013-04-29 01:12:00,70.1,-99.9,19.99,SSW,211,5.0,14.0,255,0.00,,,0.00,0,Wunderground v.1.15,2013-04-29 05:12:00,
2013-04-29 01:22:00,70.2,-99.9,19.99,SSW,203,6.0,14.0,255,0.00,,,0.00,0,Wunderground v.1.15,2013-04-29 05:22:00,
2013-04-29 01:27:00,70.1,-99.9,19.99,SSW,195,10.0,14.0,255,0.00,,,0.00,0,Wunderground v.1.15,2013-04-29 05:27:00,
2013-04-29 01:37:00,69.7,-99.9,19.99,SSW,198,3.0,14.0,255,0.00,,,0.00,0,Wunderground v.1.15,2013-04-29 05:37:00,
2013-04-29 01:46:00,69.6,-99.9,19.98,SSW,208,5.0,14.0,255,0.00,,,0.00,0,Wunderground v.1.15,2013-04-29 05:46:00,
2013-04-29 01:52:00,69.7,-99.9,19.98,SSW,212,7.0,14.0,255,0.00,,,0.00,0,Wunderground v.1.15,2013-04-29 05:52:00,
2013-04-29 02:02:00,69.7,-99.9,19.99,SSW,202,6.0,14.0,255,0.00,,,0.00,0,Wunderground v.1.15,2013-04-29 06:02:00,
2013-04-29 02:11:00,69.8,-99.9,19.99,SSW,196,6.0,14.0,255,0.00,,,0.00,0,Wunderground v.1.15,2013-04-29 06:11:00,
2013-04-29 02:22:00,70.0,-99.9,19.99,SSW,206,12.0,14.0,255,0.00,,,0.00,0,Wunderground v.1.15,2013-04-29 06:22:00,
2013-04-29 02:31:00,70.2,-99.9,19.99,SSW,204,3.0,14.0,255,0.00,,,0.00,0,Wunderground v.1.15,2013-04-29 06:31:00,
2013-04-29 02:36:00,70.1,-99.9,19.98,SSW,200,11.0,14.0,255,0.00,,,0.00,0,Wunderground v.1.15,2013-04-29 06:36:00,
2013-04-29 02:46:00,70.4,-99.9,19.99,SSW,198,9.0,14.0,255,0.00,,,0.00,0,Wunderground v.1.15,2013-04-29 06:46:00,
2013-04-29 03:01:00,70.4,-99.9,19.99,SSW,202,7.0,17.0,255,0.00,,,0.00,0,Wunderground v.1.15,2013-04-29 07:01:00,
2013-04-29 03:06:00,70.4,-99.9,19.99,SSW,210,9.0,17.0,255,0.00,,,0.00,0,Wunderground v.1.15,2013-04-29 07:06:00,
2013-04-29 03:16:00,70.2,-99.9,19.99,SSW,212,8.0,17.0,255,0.00,,,0.00,0,Wunderground v.1.15,2013-04-29 07:16:00,
2013-04-29 03:26:00,70.0,-99.9,19.98,SW,226,3.0,17.0,255,0.00,,,0.00,0,Wunderground v.1.15,2013-04-29 07:26:00,
2013-04-29 03:36:00,69.9,-99.9,19.98,SW,220,5.0,17.0,255,0.00,,,0.00,0,Wunderground v.1.15,2013-04-29 07:36:00,
2013-04-29 03:46:00,70.0,-99.9,19.99,WSW,254,5.0,17.0,255,0.00,,,0.00,0,Wunderground v.1.15,2013-04-29 07:46:00,
2013-04-29 04:01:00,69.9,-99.9,19.99,SW,215,6.0,11.0,255,0.00,,,0.00,0,Wunderground v.1.15,2013-04-29 08:01:00,
2013-04-29 04:11:00,69.8,-99.9,19.99,SSW,213,4.0,11.0,255,0.00,,,0.00,0,Wunderground v.1.15,2013-04-29 08:11:00,
2013-04-29 04:16:00,69.7,-99.9,19.98,SSW,209,4.0,11.0,255,0.00,,,0.00,0,Wunderground v.1.15,2013-04-29 08:16:00,
2013-04-29 04:26:00,69.8,-99.9,19.99,SW,216,3.0,11.0,255,0.00,,,0.00,0,Wunderground v.1.15,2013-04-29 08:26:00,
2013-04-29 04:36:00,69.8,-99.9,19.99,SW,221,5.0,11.0,255,0.00,,,0.00,0,Wunderground v.1.15,2013-04-29 08:36:00,
2013-04-29 04:46:00,69.9,-99.9,19.98,SSW,203,7.0,11.0,255,0.00,,,0.00,0,Wunderground v.1.15,2013-04-29 08:46:00,
2013-04-29 05:01:00,70.1,-99.9,19.98,SW,216,3.0,13.0,255,0.00,,,0.00,0,Wunderground v.1.15,2013-04-29 09:01:00,
2013-04-29 05:11:00,69.9,-99.9,19.99,SSW,206,4.0,13.0,255,0.00,,,0.00,0,Wunderground v.1.15,2013-04-29 09:11:00,
2013-04-29 05:20:00,69.6,-99.9,19.99,SW,219,4.0,13.0,255,0.00,,,0.00,0,Wunderground v.1.15,2013-04-29 09:20:00,
2013-04-29 05:30:00,69.6,-99.9,19.99,SW,217,5.0,13.0,255,0.00,,,0.00,0,Wunderground v.1.15,2013-04-29 09:30:00,
2013-04-29 05:40:00,68.9,-99.9,19.99,West,259,3.0,13.0,255,0.00,,,0.00,0,Wunderground v.1.15,2013-04-29 09:40:00,
2013-04-29 05:50:00,68.2,-99.9,19.98,West,270,2.0,13.0,255,0.00,,,0.00,0,Wunderground v.1.15,2013-04-29 09:50:00,
2013-04-29 06:00:00,68.0,-99.9,19.98,WNW,291,2.0,12.0,255,0.00,,,0.00,0,Wunderground v.1.15,2013-04-29 10:00:00,
2013-04-29 06:05:00,67.9,-99.9,19.98,WSW,254,5.0,12.0,255,0.00,,,0.00,0,Wunderground v.1.15,2013-04-29 10:05:00,
2013-04-29 06:15:00,67.9,-99.9,19.99,WNW,285,5.0,12.0,255,0.00,,,0.00,0,Wunderground v.1.15,2013-04-29 10:15:00,
2013-04-29 06:25:00,67.9,-99.9,19.98,West,280,5.0,12.0,255,0.00,,,0.00,0,Wunderground v.1.15,2013-04-29 10:25:00,
2013-04-29 06:30:00,67.9,-99.9,19.99,WNW,282,2.0,12.0,255,0.00,,,0.00,0,Wunderground v.1.15,2013-04-29 10:30:00,
2013-04-29 06:40:00,68.1,-99.9,19.98,West,273,0.0,12.0,255,0.00,,,0.00,0,Wunderground v.1.15,2013-04-29 10:40:00,
2013-04-29 06:50:00,68.2,-99.9,19.99,WNW,303,3.0,12.0,255,0.00,,,0.00,0,Wunderground v.1.15,2013-04-29 10:50:00,
2013-04-29 07:00:00,68.2,-99.9,19.98,WNW,303,0.0,11.0,255,0.00,,,0.00,0,Wunderground v.1.15,2013-04-29 11:00:00,
2013-04-29 07:05:00,68.2,-99.9,19.99,WNW,303,3.0,11.0,255,0.00,,,0.00,0,Wunderground v.1.15,2013-04-29 11:05:00,
2013-04-29 07:15:00,68.2,-99.9,19.99,WNW,303,2.0,11.0,255,0.00,,,0.00,0,Wunderground v.1.15,2013-04-29 11:15:00,
2013-04-29 07:21:00,68.2,-99.9,19.99,WNW,303,0.0,11.0,255,0.00,,,0.00,0,Wunderground v.1.15,2013-04-29 11:21:00,
2013-04-29 07:26:00,68.2,-99.9,19.99,WNW,303,3.0,11.0,255,0.00,,,0.00,0,Wunderground v.1.15,2013-04-29 11:26:00,
2013-04-29 07:36:00,68.2,-99.9,19.98,WNW,303,2.0,11.0,255,0.00,,,0.00,0,Wunderground v.1.15,2013-04-29 11:36:00,
2013-04-29 07:46:00,68.2,-99.9,19.99,WNW,296,0.0,11.0,255,0.00,,,0.00,0,Wunderground v.1.15,2013-04-29 11:46:00,
2013-04-29 07:51:00,68.2,-99.9,19.98,WNW,296,2.0,11.0,255,0.00,,,0.00,0,Wunderground v.1.15,2013-04-29 11:51:00,
2013-04-29 08:01:00,68.4,-99.9,19.99,WNW,296,1.0,5.0,255,0.00,,,0.00,0,Wunderground v.1.15,2013-04-29 12:01:00,
2013-04-29 08:11:00,68.5,-99.9,19.99,WNW,296,0.0,5.0,255,0.00,,,0.00,0,Wunderground v.1.15,2013-04-29 12:11:00,
2013-04-29 08:20:00,68.7,-99.9,19.99,WNW,296,0.0,5.0,255,0.00,,,0.00,0,Wunderground v.1.15,2013-04-29 12:20:00,
2013-04-29 08:25:00,68.8,-99.9,19.99,WNW,296,0.0,5.0,255,0.00,,,0.00,0,Wunderground v.1.15,2013-04-29 12:25:00,
2013-04-29 08:35:00,68.8,-99.9,19.99,NW,307,0.0,5.0,255,0.00,,,0.00,0,Wunderground v.1.15,2013-04-29 12:35:00,
2013-04-29 08:45:00,69.1,-99.9,19.99,NW,307,0.0,5.0,255,0.00,,,0.00,0,Wunderground v.1.15,2013-04-29 12:45:00,
2013-04-29 09:00:00,69.1,-99.9,19.99,West,278,0.0,5.0,255,0.00,,,0.00,0,Wunderground v.1.15,2013-04-29 13:00:00,
2013-04-29 09:10:00,69.5,-99.9,19.99,West,277,3.0,5.0,255,0.00,,,0.00,0,Wunderground v.1.15,2013-04-29 13:10:00,
2013-04-29 09:20:00,70.1,-99.9,19.99,West,277,0.0,5.0,255,0.00,,,0.00,0,Wunderground v.1.15,2013-04-29 13:20:00,
2013-04-29 09:30:00,70.0,-99.9,19.98,West,277,3.0,5.0,255,0.00,,,0.00,0,Wunderground v.1.15,2013-04-29 13:30:00,
2013-04-29 09:40:00,70.3,-99.9,19.99,West,266,4.0,5.0,255,0.00,,,0.00,0,Wunderground v.1.15,2013-04-29 13:40:00,
2013-04-29 09:50:00,70.8,-99.9,19.98,West,273,4.0,5.0,255,0.00,,,0.00,0,Wunderground v.1.15,2013-04-29 13:50:00,
2013-04-29 10:00:00,72.2,-99.9,19.99,West,271,4.0,5.0,255,0.00,,,0.00,0,Wunderground v.1.15,2013-04-29 14:00:00,
2013-04-29 10:10:00,72.8,-99.9,19.99,West,262,4.0,5.0,255,0.00,,,0.00,0,Wunderground v.1.15,2013-04-29 14:10:00,
2013-04-29 10:16:00,73.8,-99.9,19.98,West,259,5.0,5.0,255,0.00,,,0.00,0,Wunderground v.1.15,2013-04-29 14:16:00,
2013-04-29 10:21:00,73.6,-99.9,19.99,West,278,5.0,5.0,255,0.00,,,0.00,0,Wunderground v.1.15,2013-04-29 14:21:00,
2013-04-29 10:31:00,74.1,-99.9,19.99,West,263,0.0,5.0,255,0.00,,,0.00,0,Wunderground v.1.15,2013-04-29 14:31:00,
2013-04-29 10:41:00,75.4,-99.9,19.99,WNW,285,3.0,5.0,255,0.00,,,0.00,0,Wunderground v.1.15,2013-04-29 14:41:00,
2013-04-29 10:51:00,75.0,-99.9,19.98,SSW,210,7.0,7.0,255,0.00,,,0.00,0,Wunderground v.1.15,2013-04-29 14:51:00,
2013-04-29 11:01:00,75.5,-99.9,19.99,WSW,254,3.0,11.0,255,0.00,,,0.00,0,Wunderground v.1.15,2013-04-29 15:01:00,
2013-04-29 11:10:00,76.5,-99.9,19.99,SSW,211,5.0,11.0,255,0.00,,,0.00,0,Wunderground v.1.15,2013-04-29 15:10:00,
2013-04-29 11:21:00,76.3,-99.9,19.99,WSW,247,6.0,11.0,255,0.00,,,0.00,0,Wunderground v.1.15,2013-04-29 15:21:00,
2013-04-29 11:30:00,76.6,-99.9,19.99,West,270,5.0,11.0,255,0.00,,,0.00,0,Wunderground v.1.15,2013-04-29 15:30:00,
2013-04-29 11:40:00,78.5,-99.9,19.99,WSW,258,4.0,11.0,255,0.00,,,0.00,0,Wunderground v.1.15,2013-04-29 15:40:00,
2013-04-29 11:50:00,78.4,-99.9,19.99,WSW,253,7.0,11.0,255,0.00,,,0.00,0,Wunderground v.1.15,2013-04-29 15:50:00,
2013-04-29 12:00:00,78.0,-99.9,19.98,West,261,3.0,12.0,255,0.00,,,0.00,0,Wunderground v.1.15,2013-04-29 16:00:00,
2013-04-29 12:10:00,77.1,-99.9,19.98,WNW,290,6.0,12.0,255,0.00,,,0.00,0,Wunderground v.1.15,2013-04-29 16:10:00,
2013-04-29 12:15:00,76.6,-99.9,19.98,WSW,247,8.0,12.0,255,0.00,,,0.00,0,Wunderground v.1.15,2013-04-29 16:15:00,
2013-04-29 12:25:00,77.7,-99.9,19.98,WSW,254,8.0,12.0,255,0.00,,,0.00,0,Wunderground v.1.15,2013-04-29 16:25:00,
2013-04-29 12:35:00,77.1,-99.9,19.98,WSW,250,4.0,12.0,255,0.00,,,0.00,0,Wunderground v.1.15,2013-04-29 16:35:00,
2013-04-29 12:45:00,77.2,-99.9,19.99,West,271,7.0,12.0,255,0.00,,,0.00,0,Wunderground v.1.15,2013-04-29 16:45:00,
2013-04-29 13:00:00,77.8,-99.9,19.99,WSW,250,7.0,15.0,255,0.00,,,0.00,0,Wunderground v.1.15,2013-04-29 17:00:00,
2013-04-29 13:09:00,77.9,-99.9,19.99,WNW,286,4.0,15.0,255,0.00,,,0.00,0,Wunderground v.1.15,2013-04-29 17:09:00,
2013-04-29 13:16:00,79.3,-99.9,19.99,WNW,289,3.0,15.0,255,0.00,,,0.00,0,Wunderground v.1.15,2013-04-29 17:16:00,
2013-04-29 13:26:00,78.4,-99.9,19.99,WNW,286,5.0,15.0,255,0.00,,,0.00,0,Wunderground v.1.15,2013-04-29 17:26:00,
2013-04-29 13:36:00,79.8,-99.9,19.99,WNW,300,4.0,15.0,255,0.00,,,0.00,0,Wunderground v.1.15,2013-04-29 17:36:00,
2013-04-29 13:41:00,78.7,-99.9,19.98,WSW,247,5.0,15.0,255,0.00,,,0.00,0,Wunderground v.1.15,2013-04-29 17:41:00,
2013-04-29 13:51:00,79.5,-99.9,19.99,SW,227,3.0,15.0,255,0.00,,,0.00,0,Wunderground v.1.15,2013-04-29 17:51:00,
2013-04-29 14:01:00,77.9,-99.9,19.99,WSW,246,5.0,14.0,255,0.00,,,0.00,0,Wunderground v.1.15,2013-04-29 18:01:00,
2013-04-29 14:10:00,77.2,-99.9,19.99,WSW,253,7.0,14.0,255,0.00,,,0.00,0,Wunderground v.1.15,2013-04-29 18:10:00,
2013-04-29 14:16:00,78.5,-99.9,19.99,SSW,208,5.0,14.0,255,0.00,,,0.00,0,Wunderground v.1.15,2013-04-29 18:16:00,
2013-04-29 14:25:00,76.5,-99.9,19.99,SSW,200,11.0,14.0,255,0.00,,,0.00,0,Wunderground v.1.15,2013-04-29 18:25:00,
2013-04-29 14:35:00,76.1,-99.9,19.99,WSW,248,8.0,14.0,255,0.00,,,0.00,0,Wunderground v.1.15,2013-04-29 18:35:00,
2013-04-29 14:45:00,76.4,-99.9,19.99,SW,220,3.0,14.0,255,0.00,,,0.00,0,Wunderground v.1.15,2013-04-29 18:45:00,
2013-04-29 15:00:00,76.0,-99.9,19.98,SSW,208,9.0,18.0,255,0.00,,,0.00,0,Wunderground v.1.15,2013-04-29 19:00:00,
2013-04-29 15:10:00,75.0,-99.9,19.99,SSW,206,10.0,18.0,255,0.00,,,0.00,0,Wunderground v.1.15,2013-04-29 19:10:00,
2013-04-29 15:15:00,76.3,-99.9,19.99,WSW,248,5.0,18.0,255,0.00,,,0.00,0,Wunderground v.1.15,2013-04-29 19:15:00,
2013-04-29 15:25:00,75.1,-99.9,19.99,SW,221,4.0,18.0,255,0.00,,,0.00,0,Wunderground v.1.15,2013-04-29 19:25:00,
2013-04-29 15:35:00,74.3,-99.9,19.99,SSW,206,5.0,18.0,255,0.00,,,0.00,0,Wunderground v.1.15,2013-04-29 19:35:00,
2013-04-29 15:45:00,73.9,-99.9,19.99,WSW,242,5.0,18.0,255,0.00,,,0.00,0,Wunderground v.1.15,2013-04-29 19:45:00,
2013-04-29 16:00:00,74.4,-99.9,19.98,SW,222,6.0,21.0,255,0.00,,,0.00,0,Wunderground v.1.15,2013-04-29 20:00:00,
2013-04-29 16:10:00,73.7,-99.9,19.99,WSW,252,4.0,21.0,255,0.00,,,0.00,0,Wunderground v.1.15,2013-04-29 20:10:00,
2013-04-29 16:16:00,73.4,-99.9,19.98,SSW,205,3.0,21.0,255,0.00,,,0.00,0,Wunderground v.1.15,2013-04-29 20:16:00,
2013-04-29 16:26:00,73.0,-99.9,19.98,WSW,245,3.0,21.0,255,0.00,,,0.00,0,Wunderground v.1.15,2013-04-29 20:26:00,
2013-04-29 16:36:00,72.6,-99.9,19.99,SW,233,5.0,21.0,255,0.00,,,0.00,0,Wunderground v.1.15,2013-04-29 20:36:00,
2013-04-29 16:46:00,71.4,-99.9,19.99,WNW,288,4.0,21.0,255,0.00,,,0.00,0,Wunderground v.1.15,2013-04-29 20:46:00,
2013-04-29 17:00:00,65.2,-99.9,19.99,ENE,64,5.0,14.0,255,0.00,,,0.00,0,Wunderground v.1.15,2013-04-29 21:00:00,
2013-04-29 17:11:00,64.9,-99.9,19.99,NNE,14,5.0,14.0,255,0.00,,,0.00,0,Wunderground v.1.15,2013-04-29 21:11:00,
2013-04-29 17:20:00,64.5,-99.9,19.99,NE,53,4.0,14.0,255,0.00,,,0.00,0,Wunderground v.1.15,2013-04-29 21:20:00,
2013-04-29 17:30:00,64.3,-99.9,19.99,North,9,2.0,14.0,255,0.00,,,0.00,0,Wunderground v.1.15,2013-04-29 21:30:00,
2013-04-29 17:40:00,64.3,-99.9,19.99,ENE,57,4.0,14.0,255,0.00,,,0.00,0,Wunderground v.1.15,2013-04-29 21:40:00,
2013-04-29 17:50:00,64.3,-99.9,19.98,ENE,57,1.0,14.0,255,0.00,,,0.00,0,Wunderground v.1.15,2013-04-29 21:50:00,
2013-04-29 18:00:00,64.4,-99.9,19.99,NE,49,0.0,11.0,255,0.00,,,0.00,0,Wunderground v.1.15,2013-04-29 22:00:00,
2013-04-29 18:10:00,64.3,-99.9,19.98,ESE,106,2.0,11.0,255,0.00,,,0.00,0,Wunderground v.1.15,2013-04-29 22:10:00,
2013-04-29 18:20:00,64.5,-99.9,19.99,SE,138,1.0,11.0,255,0.00,,,0.00,0,Wunderground v.1.15,2013-04-29 22:20:00,
2013-04-29 18:30:00,63.8,-99.9,19.99,ESE,107,6.0,11.0,255,0.00,,,0.00,0,Wunderground v.1.15,2013-04-29 22:30:00,
2013-04-29 18:40:00,64.0,-99.9,19.98,SE,130,5.0,11.0,255,0.00,,,0.00,0,Wunderground v.1.15,2013-04-29 22:40:00,
2013-04-29 18:50:00,64.3,-99.9,19.99,SE,138,6.0,11.0,255,0.00,,,0.00,0,Wunderground v.1.15,2013-04-29 22:50:00,
2013-04-29 19:00:00,64.4,-99.9,19.99,SE,128,2.0,9.0,255,0.00,,,0.00,0,Wunderground v.1.15,2013-04-29 23:00:00,
2013-04-29 19:10:00,64.1,-99.9,19.99,ESE,105,0.0,9.0,255,0.00,,,0.00,0,Wunderground v.1.15,2013-04-29 23:10:00,
2013-04-29 19:16:00,64.2,-99.9,19.99,ESE,105,0.0,9.0,255,0.00,,,0.00,0,Wunderground v.1.15,2013-04-29 23:16:00,
2013-04-29 19:26:00,64.1,-99.9,19.99,ESE,105,0.0,9.0,255,0.00,,,0.00,0,Wunderground v.1.15,2013-04-29 23:26:00,
2013-04-29 19:36:00,64.3,-99.9,19.99,ESE,105,1.0,9.0,255,0.00,,,0.00,0,Wunderground v.1.15,2013-04-29 23:36:00,
2013-04-29 19:46:00,64.4,-99.9,19.99,ESE,105,0.0,9.0,255,0.00,,,0.00,0,Wunderground v.1.15,2013-04-29 23:46:00,
2013-04-29 20:00:00,64.4,-99.9,19.99,ESE,105,0.0,4.0,255,0.00,,,0.00,0,Wunderground v.1.15,2013-04-30 00:00:00,
2013-04-29 20:06:00,64.4,-99.9,19.99,ESE,105,0.0,4.0,255,0.00,,,0.00,0,Wunderground v.1.15,2013-04-30 00:06:00,
2013-04-29 20:15:00,64.2,-99.9,19.99,ESE,105,0.0,4.0,255,0.00,,,0.00,0,Wunderground v.1.15,2013-04-30 00:15:00,
2013-04-29 20:25:00,64.3,-99.9,19.99,ESE,105,0.0,4.0,255,0.00,,,0.00,0,Wunderground v.1.15,2013-04-30 00:25:00,
2013-04-29 20:30:00,64.5,-99.9,19.99,ESE,105,0.0,4.0,255,0.00,,,0.00,0,Wunderground v.1.15,2013-04-30 00:30:00,
2013-04-29 20:40:00,64.9,-99.9,19.98,SE,126,4.0,4.0,255,0.00,,,0.00,0,Wunderground v.1.15,2013-04-30 00:40:00,
2013-04-29 20:50:00,64.9,-99.9,19.98,SE,143,0.0,4.0,255,0.00,,,0.00,0,Wunderground v.1.15,2013-04-30 00:50:00,
2013-04-29 21:00:00,65.2,-99.9,19.98,SE,143,5.0,8.0,255,0.00,,,0.00,0,Wunderground v.1.15,2013-04-30 01:00:00,
2013-04-29 21:05:00,65.5,-99.9,19.98,SE,143,2.0,8.0,255,0.00,,,0.00,0,Wunderground v.1.15,2013-04-30 01:05:00,
2013-04-29 21:15:00,65.7,-99.9,19.99,SE,143,4.0,8.0,255,0.00,,,0.00,0,Wunderground v.1.15,2013-04-30 01:15:00,
2013-04-29 21:25:00,65.8,-99.9,19.99,SSE,149,5.0,8.0,255,0.00,,,0.00,0,Wunderground v.1.15,2013-04-30 01:25:00,
2013-04-29 21:35:00,66.0,-99.9,19.99,SSE,168,5.0,8.0,255,0.00,,,0.00,0,Wunderground v.1.15,2013-04-30 01:35:00,
2013-04-29 21:45:00,66.0,-99.9,19.99,SSE,168,5.0,8.0,255,0.00,,,0.00,0,Wunderground v.1.15,2013-04-30 01:45:00,
2013-04-29 21:50:00,66.0,-99.9,19.99,South,172,3.0,8.0,255,0.00,,,0.00,0,Wunderground v.1.15,2013-04-30 01:50:00,
2013-04-29 22:00:00,65.8,-99.9,19.99,South,189,5.0,7.0,255,0.00,,,0.00,0,Wunderground v.1.15,2013-04-30 02:00:00,
2013-04-29 22:11:00,65.7,-99.9,19.99,South,180,5.0,7.0,255,0.00,,,0.00,0,Wunderground v.1.15,2013-04-30 02:11:00,
2013-04-29 22:21:00,65.5,-99.9,19.99,South,180,3.0,7.0,255,0.00,,,0.00,0,Wunderground v.1.15,2013-04-30 02:21:00,
2013-04-29 22:26:00,65.5,-99.9,19.99,South,180,0.0,7.0,255,0.00,,,0.00,0,Wunderground v.1.15,2013-04-30 02:26:00,
2013-04-29 22:36:00,65.4,-99.9,19.98,South,180,2.0,7.0,255,0.00,,,0.00,0,Wunderground v.1.15,2013-04-30 02:36:00,
2013-04-29 22:46:00,65.4,-99.9,19.98,South,180,0.0,7.0,255,0.00,,,0.00,0,Wunderground v.1.15,2013-04-30 02:46:00,
2013-04-29 23:01:00,65.5,-99.9,19.99,South,180,2.0,4.0,255,0.00,,,0.00,0,Wunderground v.1.15,2013-04-30 03:01:00,
2013-04-29 23:10:00,65.4,-99.9,19.98,South,180,0.0,4.0,255,0.00,,,0.00,0,Wunderground v.1.15,2013-04-30 03:10:00,
2013-04-29 23:21:00,65.4,-99.9,19.98,South,180,0.0,4.0,255,0.00,,,0.00,0,Wunderground v.1.15,2013-04-30 03:21:00,
2013-04-29 23:30:00,65.5,-99.9,19.99,South,180,2.0,4.0,255,0.00,,,0.00,0,Wunderground v.1.15,2013-04-30 03:30:00,
2013-04-29 23:40:00,65.6,-99.9,19.99,South,180,2.0,4.0,255,0.00,,,0.00,0,Wunderground v.1.15,2013-04-30 03:40:00,
2013-04-29 23:45:00,65.7,-99.9,19.99,South,180,1.0,4.0,255,0.00,,,0.00,0,Wunderground v.1.15,2013-04-30 03:45:00,